This is the latest recevied weather packets stored in our database for station/object SM2FXT-13. If no packets are shown the sender has not sent any weather packets the latest 10 day(s).
| Time | Temp. | Humidity | Pressure | Rain* | Wind** | Luminosity | Snow |
|---|---|---|---|---|---|---|---|
| 1777780804 | 5.56° C | 69% | 1005.8 hPa | 0 mm | - | - | - |
| 1777778403 | 2.22° C | 78% | 1005.9 hPa | 0 mm | - | - | - |
| 1777773604 | 0.56° C | 84% | 1005.5 hPa | 0 mm | - | - | - |
| 1777771203 | 1.11° C | 81% | 1005.5 hPa | 0 mm | - | - | - |
| 1777761003 | 4.44° C | 64% | 1005.2 hPa | 0 mm | - | - | - |
| 1777756202 | 5.56° C | 56% | 1004.9 hPa | 0 mm | - | - | - |
| 1777754403 | 6.67° C | 54% | 1004.8 hPa | 0 mm | - | - | - |
| 1777753202 | 7.22° C | 54% | 1004.9 hPa | 0 mm | - | - | - |
| 1777749602 | 9.44° C | 47% | 1004.2 hPa | 0 mm | - | - | - |
| 1777749003 | 9.44° C | 46% | 1004 hPa | 0 mm | - | - | - |
| 1777747203 | 10° C | 44% | 1003.9 hPa | 0 mm | - | - | - |
| 1777744203 | 11.11° C | 39% | 1003.3 hPa | 0 mm | - | - | - |
| 1777743003 | 12.22° C | 37% | 1003.4 hPa | 0 mm | - | - | - |
| 1777738803 | 14.44° C | 39% | 1003 hPa | 0 mm | - | - | - |
| 1777737003 | 15.56° C | 38% | 1002.8 hPa | 0 mm | - | - | - |
| 1777735202 | 16.11° C | 35% | 1002.9 hPa | 0 mm | - | - | - |
| 1777729202 | 16.67° C | 48% | 1002.7 hPa | 0 mm | - | - | - |
| 1777728003 | 17.78° C | 46% | 1002.6 hPa | 0 mm | - | - | - |
| 1777723803 | 16.67° C | 49% | 1003.1 hPa | 0 mm | - | - | - |
| 1777716003 | 18.33° C | 47% | 1002.5 hPa | 0 mm | - | - | - |
| 1777706403 | 17.22° C | 51% | 1003.3 hPa | 0 mm | - | - | - |
| 1777704603 | 15.56° C | 55% | 1003.4 hPa | 0 mm | - | - | - |
| 1777704004 | 15.56° C | 55% | 1003.4 hPa | 0 mm | - | - | - |
| 1777698004 | 12.22° C | 62% | 1004.6 hPa | 0 mm | - | - | - |
| 1777692603 | 6.67° C | 84% | 1005.5 hPa | 0 mm | - | - | - |
* Rain latest hour (hover to see other rain measurements)
** Current wind speed in m/s (hover to see current wind gust speed)